STARLINK-32782 (62821 NORAD) Tracking and Keplerian Element Data

This shows tracking and keplerian element data for the satellite.

Feedback or suggestion? Click here.




ElementValue
Catalog62821
NameSTARLINK-32782
Epoch Orbit281
Epoch Day34.83335648
Epoch Year2025
RAAN13.5665
Inclination53.1469
Eccentricity9.31E-05
Argument of Perigee115.5458
Mean Anonmoly218.6448
Mean Motion15.8695146
Decay Rate-0.01016104
L11 62821U 25018R 25034.83335648 -.01016104 00000+0 -43194-2 0 9996
L22 62821 53.1469 13.5665 0000931 115.5458 218.6448 15.86951460 2816



Live tracking and technical data element details for STARLINK-32782 (NORAD 62821). STARLINK-32782 can be tracked NOW for your location showing map with azimuth and elevation plus other details from your city location.







IsCatalogInMostPopularTable: catalog: 62821, numindb: 5
Update: records affected: 1



GetName: 62821 STARLINK-32782

Hit Count: updated at: Fri, 14 Feb 2025 15:16:50 GMT